[[{"header":{"parameterUnit":"m.s-1","parameterCategory":1,"la1":30.2991,"la2":30.254,"lo1":-89.0895,"lo2":-89.0444,"dy":0.0017,"dx":0.0017,"nx":28,"ny":28,"refTime":"2023-05-28T21:00:00:Z","depth":0,"parameterNumber":2,"parameterNumberName":"U-component_of_WINDS"},"data":[0,0,0,0,0,0,0,0,0,0,0,0,0,0,0,0,0,0,0,0,0,0,0,0,0,0,0,0,0,0,0,0,0,0,0,0,0,0,0,0,0,0,0,0,0,0,0,0,0,0,0,0,0,0,0,0,0,0,2.2849,2.2849,0,2.2856,2.2856,2.2856,2.2768,2.2766,2.2764,2.2761,2.2772,2.2775,2.2777,0,0,0,0,0,0,0,0,0,0,0,0,0,2.2761,2.2763,2.2849,2.2849,2.2849,2.2856,2.2856,2.2856,2.2769,2.2766,2.2763,2.276,2.2771,2.2774,2.2777,0,0,0,0,0,0,0,0,0,0,0,0,0,2.2787,2.2764,2.2849,2.2806,2.2802,2.2856,2.2856,2.2856,2.2769,2.2766,2.2762,2.2759,2.277,2.2774,2.2778,2.2873,0,0,2.2789,2.2791,0,0,0,0,0,0,0,0,2.2785,2.279,2.2812,2.2809,2.2805,2.2807,2.2829,2.2862,2.277,2.2782,2.2761,2.2757,2.2787,2.2789,2.2799,2.2874,2.2874,2.279,2.2792,2.2794,2.2795,0,0,0,0,0,0,0,2.2784,2.2789,2.2851,2.2813,2.2808,2.2787,2.2787,2.2834,2.2805,2.2781,2.2774,2.2776,2.2784,2.2795,2.2798,2.2874,2.2789,2.2793,2.2795,2.2797,2.3024,2.3027,0,0,0,0,0,0,2.2787,2.2788,2.2851,2.2852,2.2786,2.2791,2.2791,2.281,2.2804,2.2799,2.2779,2.2772,2.279,2.2794,2.2798,2.2906,2.2793,2.2797,2.2799,2.302,2.3024,2.3028,0,0,0,0,0,0,2.2786,2.2794,2.2851,2.2818,2.2824,2.2797,2.2819,2.2812,2.2823,2.2803,2.2797,2.2796,2.2788,2.2793,2.2854,2.2906,2.2799,2.2802,2.3015,2.3021,2.3026,2.3126,0,0,0,0,0,0,2.2784,2.2794,2.283,2.282,2.2826,2.2907,2.2822,2.2815,2.2829,2.282,2.2817,2.2813,2.2785,2.2849,2.2858,2.2909,2.2805,2.3011,2.3018,2.3025,2.3118,2.3134,2.3148,0,0,0,0,0,2.2781,2.2859,2.2832,2.284,2.287,2.291,2.2914,2.2879,2.2834,2.287,2.2856,2.2813,2.2899,2.2856,2.2865,2.2918,2.3007,2.3016,2.3024,2.3111,2.3131,2.3148,0,0,0,0,0,0,2.2879,2.2857,2.2827,2.2905,2.2909,2.2895,2.2939,2.2902,2.2921,2.2912,2.287,2.287,2.2937,2.2934,2.2886,2.3008,2.2945,2.2956,2.3008,2.3027,2.3042,2.3041,2.2808,0,0,0,0,0,2.2909,2.2942,2.2922,2.2992,2.2996,2.2967,2.2984,2.2956,2.296,2.2962,2.2953,2.296,2.2987,2.3007,2.3032,2.3117,2.3114,2.3158,2.3173,2.3186,2.3195,2.3237,2.3255,2.3056,2.3056,2.3056,0,0,2.2973,2.2965,2.2989,2.3012,2.3012,2.3047,2.297,2.3012,2.3037,2.2969,2.3025,2.3019,2.3023,2.3095,2.3127,2.3094,2.3249,2.3196,2.3207,2.3209,2.3247,2.3266,2.3283,2.3062,2.3061,2.306,0,0,2.3106,2.3104,2.3161,2.3162,2.3163,2.3142,2.3156,2.3147,2.3139,2.3194,2.3143,2.3173,2.3223,2.3226,2.3235,2.3365,2.3325,2.3375,2.3454,2.3495,2.3511,2.3524,2.3569,2.3585,2.3384,2.3385,2.3385,0,2.3185,2.3235,2.3195,2.3238,2.3249,2.3186,2.3242,2.3246,2.3256,2.3265,2.3228,2.3287,2.3285,2.3356,2.3387,2.3397,2.341,2.3375,2.3511,2.3525,2.3537,2.3579,2.3596,2.3391,2.339,2.3389,2.3389,0,2.3331,2.3366,2.3412,2.342,2.3435,2.3486,2.3452,2.3473,2.3444,2.3427,2.3483,2.3478,2.3499,2.3514,2.3488,2.3581,2.356,2.3519,2.3454,2.3562,2.3601,2.3617,2.3399,2.3397,2.3395,2.3394,0,0,2.3529,2.351,2.3527,2.3528,2.3523,2.355,2.3596,2.3614,2.3632,2.364,2.3677,2.3719,2.3678,2.3688,2.3661,2.3697,2.3797,2.365,2.3649,2.3676,2.3897,2.3927,2.3946,2.3771,2.3774,2.3776,2.3895,0,2.3656,2.3732,2.3695,2.3776,2.3807,2.3746,2.3786,2.3787,2.3772,2.3796,2.378,2.3809,2.3755,2.376,2.3793,2.3778,2.3841,2.3769,2.3804,2.3805,2.3803,2.3967,2.4,2.4113,2.391,2.3913,2.3915,0,2.3816,2.3827,2.391,2.3895,2.3906,2.3943,2.3954,2.3979,2.3978,2.3964,2.3973,2.3936,2.398,2.3916,2.3974,2.3926,2.3938,2.3932,2.3936,2.3937,2.3866,2.3971,2.4148,2.4165,2.3939,2.3937,2.3935,0,2.3948,2.3984,2.4037,2.404,2.4025,2.4052,2.4047,2.4042,2.4054,2.4065,2.4072,2.409,2.4099,2.4113,2.4081,2.4038,2.4143,2.4077,2.4132,2.4133,2.4157,2.4155,2.4337,2.4167,2.4167,2.4167,2.4166,0,2.4093,2.4146,2.4096,2.4129,2.4185,2.4142,2.4199,2.4188,2.4183,2.4212,2.4162,2.4191,2.4148,2.4172,2.4148,2.4198,2.4204,2.4193,2.4186,2.4197,2.4198,2.4204,2.4194,2.4171,2.417,2.4169,2.4168,0,2.4251,2.422,2.4273,2.4253,2.4249,2.4291,2.4274,2.4303,2.4283,2.432,2.4327,2.4297,2.4322,2.4292,2.4316,2.4299,2.4367,2.4349,2.4367,2.4361,2.4417,2.4411,2.4607,2.463,2.4447,2.4449,2.4451,0,2.4345,2.4384,2.4366,2.438,2.4378,2.4403,2.4414,2.4373,2.4386,2.4386,2.4415,2.4435,2.445,2.4493,2.4474,2.4491,2.4472,2.4539,2.4474,2.4483,2.447,2.4468,2.447,2.4552,2.4555,2.4556,2.4558,0,2.4515,2.4496,2.4514,2.4524,2.4538,2.4546,2.4549,2.4565,2.4521,2.4539,2.4563,2.4574,2.4596,2.4616,2.4628,2.4623,2.4583,2.4578,2.4591,2.4603,2.461,2.4604,2.4401,2.4574,2.4572,2.4571,2.457,2.457,2.4642,2.4672,2.4663,2.4683,2.468,2.4684,2.4709,2.4691,2.4709,2.4723,2.4697,2.4727,2.4722,2.4733,2.4732,2.4755,2.4726,2.4746,2.4751,2.4756,2.4763,2.4607,2.4757,2.4757,2.4756,2.4756,2.4755,0,2.4807,2.4797,2.4816,2.482,2.4836,2.4794,2.4795,2.4811,2.4837,2.4835,2.4849,2.4875,2.4894,2.4875,2.489,2.4912,2.4894,2.4917,2.4914,2.4913,2.4789,2.4775,2.4931,2.4931,2.4931,2.4931,2.4931,2.4931,2.4895,2.4942,2.4922,2.4966,2.4956,2.4983,2.4987,2.4989,2.4987,2.5017,2.5032,2.5018,2.5009,2.5022,2.5037,2.5031,2.5038,2.5068,2.5055,2.494,2.4922,2.4906,2.4892,2.507,2.507,2.5177,2.5178,2.5179]},{"header":{"parameterUnit":"m.s-1","parameterCategory":1,"la1":30.2991,"la2":30.254,"lo1":-89.0895,"lo2":-89.0444,"dy":0.0017,"dx":0.0017,"nx":28,"ny":28,"refTime":"2023-05-28T21:00:00:Z","depth":0,"parameterNumber":3,"parameterNumberName":"V-component_of_WINDS"},"data":[0,0,0,0,0,0,0,0,0,0,0,0,0,0,0,0,0,0,0,0,0,0,0,0,0,0,0,0,0,0,0,0,0,0,0,0,0,0,0,0,0,0,0,0,0,0,0,0,0,0,0,0,0,0,0,0,0,0,0.6135,0.6135,0,0.6163,0.6163,0.6163,0.6152,0.6151,0.615,0.615,0.6178,0.6179,0.618,0,0,0,0,0,0,0,0,0,0,0,0,0,0.6071,0.6072,0.6135,0.6135,0.6136,0.6163,0.6163,0.6164,0.6152,0.6151,0.615,0.6149,0.6177,0.6179,0.6181,0,0,0,0,0,0,0,0,0,0,0,0,0,0.6099,0.6072,0.6135,0.6133,0.6133,0.6163,0.6163,0.6164,0.6152,0.6151,0.615,0.6149,0.6177,0.6179,0.6181,0.6214,0,0,0.6187,0.6188,0,0,0,0,0,0,0,0,0.6097,0.6101,0.6133,0.6133,0.6133,0.6153,0.6151,0.618,0.6152,0.6145,0.615,0.6148,0.617,0.6173,0.618,0.6215,0.6216,0.6187,0.6189,0.6189,0.619,0,0,0,0,0,0,0,0.6095,0.61,0.6146,0.6133,0.6134,0.613,0.6133,0.6156,0.6163,0.6145,0.6144,0.6148,0.617,0.6178,0.6181,0.6217,0.6187,0.6189,0.619,0.6191,0.6279,0.628,0,0,0,0,0,0,0.6093,0.6098,0.6145,0.6147,0.6112,0.6132,0.6136,0.6147,0.6162,0.6164,0.6149,0.6147,0.6175,0.6178,0.6182,0.622,0.6189,0.6191,0.6193,0.6278,0.6279,0.628,0,0,0,0,0,0,0.6092,0.6098,0.6144,0.6122,0.6128,0.6135,0.6148,0.6149,0.6157,0.6165,0.6166,0.6156,0.6174,0.6179,0.6206,0.6221,0.6192,0.6194,0.6276,0.6278,0.628,0.6299,0,0,0,0,0,0,0.609,0.6097,0.611,0.6123,0.6129,0.6168,0.6149,0.615,0.616,0.6159,0.6172,0.6173,0.6174,0.6203,0.6208,0.6224,0.6196,0.6275,0.6277,0.6279,0.6297,0.6301,0.6304,0,0,0,0,0,0.6088,0.6114,0.6111,0.6116,0.6145,0.6169,0.6172,0.6173,0.6162,0.6174,0.618,0.6173,0.6219,0.6205,0.6211,0.6228,0.6274,0.6277,0.6279,0.6295,0.63,0.6304,0,0,0,0,0,0,0.6104,0.6116,0.6112,0.6144,0.6155,0.6167,0.6183,0.6178,0.6193,0.6191,0.619,0.6194,0.6221,0.6227,0.6212,0.626,0.6245,0.6248,0.6255,0.626,0.6263,0.6261,0.6197,0,0,0,0,0,0.6111,0.6129,0.6139,0.6166,0.6172,0.6176,0.6186,0.6186,0.6198,0.6202,0.621,0.6221,0.6238,0.6249,0.6265,0.6297,0.63,0.6312,0.6315,0.6318,0.6322,0.6338,0.6343,0.6288,0.6288,0.6288,0,0,0.6126,0.6135,0.6146,0.6169,0.6178,0.6196,0.618,0.6201,0.6214,0.6205,0.6231,0.6237,0.625,0.6279,0.6292,0.6285,0.6337,0.6322,0.6324,0.6325,0.6341,0.6346,0.6351,0.629,0.629,0.6289,0,0,0.6162,0.6171,0.6194,0.6203,0.6217,0.6219,0.6225,0.6237,0.624,0.6266,0.6259,0.6275,0.6305,0.6314,0.6322,0.6361,0.6355,0.6366,0.6386,0.6402,0.6406,0.641,0.6423,0.6428,0.637,0.637,0.637,0,0.6179,0.6207,0.6207,0.6227,0.6237,0.623,0.6252,0.6261,0.6279,0.6286,0.6277,0.6313,0.6322,0.6352,0.6362,0.6369,0.6375,0.6365,0.6406,0.641,0.6413,0.6425,0.643,0.6371,0.6371,0.6371,0.637,0,0.6226,0.6246,0.6262,0.6279,0.6291,0.6313,0.6315,0.6327,0.6325,0.6329,0.6354,0.6364,0.6381,0.6389,0.6387,0.6419,0.6414,0.6406,0.639,0.642,0.6431,0.6436,0.6373,0.6372,0.6372,0.6371,0,0,0.6274,0.629,0.6296,0.6303,0.6317,0.6332,0.6353,0.637,0.638,0.6392,0.6409,0.6434,0.6426,0.6436,0.6435,0.6449,0.6478,0.6439,0.6439,0.6445,0.6512,0.6518,0.6524,0.6474,0.6475,0.6476,0.6511,0,0.6311,0.6347,0.6347,0.6381,0.6398,0.6391,0.6409,0.6419,0.6423,0.6438,0.6442,0.6459,0.6448,0.6453,0.6467,0.6471,0.6491,0.6469,0.6489,0.649,0.6486,0.653,0.6536,0.6569,0.6516,0.6517,0.6517,0,0.6359,0.6372,0.6407,0.6418,0.6425,0.6441,0.6456,0.6471,0.6482,0.6484,0.6494,0.6491,0.6511,0.6496,0.6523,0.6508,0.6517,0.652,0.6521,0.6523,0.6505,0.6532,0.658,0.6584,0.6524,0.6524,0.6523,0,0.6388,0.6416,0.644,0.6447,0.646,0.6471,0.6477,0.6487,0.6497,0.651,0.6516,0.6532,0.654,0.6552,0.6553,0.6541,0.658,0.6565,0.6582,0.6582,0.659,0.6589,0.6639,0.6596,0.6596,0.6596,0.6596,0,0.6429,0.6451,0.6453,0.6468,0.6492,0.6492,0.6515,0.652,0.6529,0.6544,0.6539,0.6554,0.6554,0.6569,0.657,0.6592,0.6596,0.6598,0.6597,0.6598,0.6597,0.6603,0.66,0.6598,0.6597,0.6597,0.6597,0,0.6466,0.6469,0.6495,0.6505,0.6508,0.6525,0.6533,0.6547,0.655,0.657,0.6574,0.6579,0.6596,0.6598,0.6618,0.6618,0.6645,0.6643,0.6641,0.6641,0.6657,0.6655,0.6711,0.6718,0.6672,0.6672,0.6673,0,0.6492,0.6508,0.652,0.6529,0.6536,0.6552,0.6562,0.6562,0.6573,0.6586,0.6598,0.6614,0.6628,0.6655,0.666,0.6675,0.6672,0.6691,0.6674,0.6674,0.6671,0.667,0.6671,0.6694,0.6694,0.6695,0.6695,0,0.6536,0.6536,0.6551,0.6566,0.6577,0.6589,0.66,0.6608,0.661,0.6622,0.6639,0.6649,0.6669,0.6685,0.6699,0.6705,0.67,0.67,0.6705,0.6705,0.6703,0.6703,0.6649,0.6699,0.6698,0.6698,0.6698,0.6698,0.6567,0.6581,0.6591,0.6607,0.6615,0.6626,0.6639,0.6643,0.6658,0.6674,0.6673,0.6692,0.6702,0.6721,0.6727,0.6742,0.6735,0.6742,0.6744,0.6745,0.6746,0.6701,0.6744,0.6744,0.6744,0.6744,0.6744,0,0.661,0.6617,0.6631,0.6647,0.6659,0.6653,0.6665,0.6676,0.6692,0.6702,0.6715,0.6734,0.6749,0.6755,0.677,0.678,0.6778,0.6784,0.6783,0.6784,0.6752,0.6746,0.6786,0.6786,0.6786,0.6786,0.6786,0.6786,0.6634,0.6657,0.6659,0.6685,0.6691,0.6709,0.6716,0.6725,0.6733,0.6755,0.6767,0.6771,0.6779,0.6795,0.6808,0.6809,0.6815,0.6821,0.6822,0.6791,0.6787,0.6783,0.6777,0.6823,0.6823,0.6853,0.6853,0.6854]}]]